Weather reports worldwide

Advertisment
Thorney Island, United Kingdom (3872): temperature & dewpoint: 13.11.2019 18:00:00 - 19.11.2019 18:00:00 (GMT)Thorney Island, United Kingdom (3872): temperature -20cm & temperature -100cm: 13.11.2019 18:00:00 - 19.11.2019 18:00:00 (GMT)Thorney Island, United Kingdom (3872): wind speed & gusts: 13.11.2019 18:00:00 - 19.11.2019 18:00:00 (GMT)Thorney Island, United Kingdom (3872): wind direction: 13.11.2019 18:00:00 - 19.11.2019 18:00:00 (GMT)Thorney Island, United Kingdom (3872): reduced air pressure: 13.11.2019 18:00:00 - 19.11.2019 18:00:00 (GMT)Thorney Island, United Kingdom (3872): visibility: 13.11.2019 18:00:00 - 19.11.2019 18:00:00 (GMT)Thorney Island, United Kingdom (3872): precipitation: 13.11.2019 18:00:00 - 19.11.2019 18:00:00 (GMT)
Date & Time tt [°C] td [°C] tt -20cm [°C] tt -100cm [°C] ff [km/h] ff [kn] fx [km/h] fx [kn] dd ppp [hPa] vv [km] rr [mm]
19.11.2019 18:00:00 8,4 4,7 - - 16 9 - - SSE 1015,6 45 0,0
19.11.2019 17:00:00 8,7 5,0 - - 16 9 - - S 1015,5 50 0,0
19.11.2019 16:00:00 8,3 4,5 - - 16 9 - - SSE 1015,4 50 0,0
19.11.2019 15:00:00 9,0 5,0 - - 18 10 - - S 1015,6 50 0,0
19.11.2019 14:00:00 9,3 5,6 - - 18 10 - - SSW 1015,8 35 0,0
19.11.2019 13:00:00 9,3 5,7 - - 16 9 - - SSW 1016,0 45 0,0
19.11.2019 12:00:00 7,2 5,1 - - 11 6 - - E 1016,3 28 0,0
19.11.2019 11:00:00 6,4 4,4 - - 9 5 - - E 1016,9 30 0,0
19.11.2019 10:00:00 5,4 3,6 - - 11 6 - - E 1017,2 30 0,0
19.11.2019 09:00:00 3,3 2,5 8,2 11,0 13 7 - - ENE 1017,2 35 0,2
19.11.2019 08:00:00 1,2 1,0 - - 9 5 - - ENE 1017,1 19 0,0
19.11.2019 07:00:00 0,2 0,0 - - 5 3 - - ENE 1017,0 10 0,0
19.11.2019 06:00:00 -1,2 -1,4 - - 9 5 - - NE 1016,6 9 0,0
19.11.2019 05:00:00 -1,5 -1,7 - - 8 4 - - NE 1016,9 10 0,0
19.11.2019 04:00:00 -1,0 -1,3 - - 8 4 - - NNE 1017,3 14 0,0
19.11.2019 03:00:00 -2,2 -2,7 - - 4 2 - - N 1017,5 14 0,0
19.11.2019 02:00:00 -0,8 -1,1 - - 4 2 - - NNE 1017,6 10 0,0
19.11.2019 01:00:00 -0,8 -1,2 - - 4 2 - - NNW 1017,7 10 0,0
19.11.2019 00:00:00 -0,9 -1,4 - - 4 2 - - NNW 1017,8 12 0,0
18.11.2019 23:00:00 0,0 -0,6 - - 4 2 - - N 1017,9 12 0,0
18.11.2019 22:00:00 0,8 -0,2 - - 5 3 - - NNW 1018,0 16 0,0
18.11.2019 21:00:00 1,8 0,6 - - 9 5 - - NW 1018,2 27 0,0
18.11.2019 20:00:00 2,8 1,4 - - 9 5 - - NW 1018,1 26 0,0
18.11.2019 19:00:00 3,5 1,7 - - 8 4 - - NW 1017,6 35 0,0
18.11.2019 18:00:00 4,2 2,0 - - 9 5 - - NW 1017,2 45 0,0
18.11.2019 17:00:00 5,4 1,7 - - 8 4 - - NW 1017,0 35 0,0
18.11.2019 16:00:00 7,4 2,1 - - 11 6 - - N 1016,9 50 0,0
18.11.2019 15:00:00 8,6 2,9 - - 15 8 - - N 1016,3 50 0,0
18.11.2019 14:00:00 8,8 3,1 - - 16 9 - - N 1016,2 40 0,0
18.11.2019 13:00:00 8,9 2,7 - - 18 10 - - NNW 1015,9 25 0,0
18.11.2019 12:00:00 8,6 3,7 - - 15 8 - - N 1015,4 50 0,0
18.11.2019 11:00:00 8,1 3,9 - - 15 8 - - N 1015,9 40 0,0
18.11.2019 10:00:00 7,1 4,5 - - 9 5 - - N 1016,3 22 0,0
18.11.2019 09:00:00 4,7 3,4 8,7 11,2 8 4 - - WNW 1016,1 19 0,0
18.11.2019 08:00:00 4,4 2,8 - - 11 6 - - N 1015,7 25 0,0
18.11.2019 07:00:00 4,9 2,9 - - 13 7 - - NNW 1015,5 50 0,0
18.11.2019 06:00:00 5,8 3,5 - - 21 11 - - N 1014,8 45 0,0
18.11.2019 05:00:00 6,5 4,9 - - 11 6 - - NNW 1014,3 45 0,0
18.11.2019 04:00:00 6,7 5,4 - - 15 8 - - N 1014,3 35 0,0
18.11.2019 03:00:00 6,7 5,8 - - 15 8 - - N 1014,2 26 0,0
18.11.2019 02:00:00 5,8 5,3 - - 13 7 - - NNW 1013,4 6 0,0
18.11.2019 01:00:00 5,5 5,0 - - 9 5 - - NNW 1013,5 6 0,0
18.11.2019 00:00:00 3,9 3,5 - - 8 4 - - NNW 1013,4 6 0,0
17.11.2019 23:00:00 2,4 1,7 - - 0 0 - - N 1013,3 1,5 0,0
17.11.2019 22:00:00 3,3 2,4 - - 5 3 - - N 1012,9 5 0,0
17.11.2019 21:00:00 3,7 2,4 - - 13 7 - - N 1013,0 9 0,0
17.11.2019 20:00:00 3,7 1,6 - - 11 6 - - N 1012,8 17 0,0
17.11.2019 19:00:00 4,1 2,3 - - 11 6 - - NNE 1012,4 18 0,0
17.11.2019 18:00:00 4,7 2,8 - - 5 3 - - NNE 1012,2 18 0,0
17.11.2019 17:00:00 5,8 3,0 - - 8 4 - - NNW 1011,8 26 0,0
17.11.2019 16:00:00 6,8 3,2 - - 8 4 - - N 1011,4 24 0,0
17.11.2019 15:00:00 8,0 3,8 - - 8 4 - - NNE 1011,2 40 0,0
17.11.2019 14:00:00 8,1 3,8 - - 9 5 - - N 1011,0 27 0,0
17.11.2019 13:00:00 8,0 2,9 - - 11 6 - - NNE 1010,7 30 0,0
17.11.2019 12:00:00 8,2 3,2 - - 11 6 - - NNE 1010,5 40 0,0
17.11.2019 11:00:00 7,5 3,5 - - 13 7 - - NE 1010,5 40 0,0
17.11.2019 10:00:00 5,7 3,8 - - 8 4 - - N 1010,7 30 0,0
17.11.2019 09:00:00 4,2 2,5 8,9 11,4 8 4 - - N 1010,6 35 0,0
17.11.2019 08:00:00 3,4 1,5 - - 8 4 - - NNE 1010,3 29 0,0
17.11.2019 07:00:00 3,3 2,4 - - 5 3 - - NE 1009,6 21 0,0
17.11.2019 06:00:00 3,3 1,7 - - 5 3 - - NNE 1009,3 25 0,0
17.11.2019 05:00:00 4,0 2,8 - - 8 4 - - N 1008,9 23 0,0
17.11.2019 04:00:00 4,5 3,2 - - 9 5 - - N 1008,6 24 0,0
17.11.2019 03:00:00 4,3 3,3 - - 11 6 - - N 1008,8 30 0,0
17.11.2019 02:00:00 4,0 3,3 - - 8 4 - - N 1009,0 26 0,0
17.11.2019 01:00:00 3,6 3,0 - - 5 3 - - NNW 1009,1 17 0,0
17.11.2019 00:00:00 3,4 2,7 - - 8 4 - - NNE 1008,6 11 0,0
16.11.2019 23:00:00 3,7 2,9 - - 5 3 - - NE 1008,5 9 0,0
16.11.2019 22:00:00 4,4 3,2 - - 4 2 - - NNW 1008,7 17 0,0
16.11.2019 21:00:00 5,2 3,9 - - 8 4 - - E 1008,6 23 0,0
16.11.2019 20:00:00 5,5 4,1 - - 5 3 - - N 1008,4 40 0,0
16.11.2019 19:00:00 5,2 3,6 - - 8 4 - - ENE 1007,9 40 0,0
16.11.2019 18:00:00 5,9 4,3 - - 11 6 - - ENE 1007,8 30 0,0
16.11.2019 17:00:00 6,3 4,0 - - 8 4 - - NE 1007,6 45 0,0
16.11.2019 16:00:00 6,7 3,7 - - 8 4 - - N 1007,3 50 0,0
16.11.2019 15:00:00 7,0 3,8 - - 8 4 - - N 1007,1 50 0,0
16.11.2019 14:00:00 7,1 3,8 - - 11 6 - - NNE 1006,4 50 0,0
16.11.2019 13:00:00 7,3 3,5 - - 11 6 - - NNE 1006,1 40 0,0
16.11.2019 12:00:00 7,6 3,9 - - 13 7 - - NNE 1006,0 50 0,0
16.11.2019 11:00:00 7,0 3,9 - - 15 8 - - NE 1005,9 45 0,0
16.11.2019 10:00:00 5,8 3,1 - - 21 11 - - E 1005,7 50 0,0
16.11.2019 09:00:00 5,5 3,0 9,0 11,5 18 10 - - ENE 1005,4 50 0,0
16.11.2019 08:00:00 4,8 2,9 - - 16 9 - - NNE 1005,1 50 0,0
16.11.2019 07:00:00 4,8 2,8 - - 22 12 - - NE 1004,4 50 0,0
16.11.2019 06:00:00 5,0 2,7 - - 22 12 - - NE 1003,7 50 0,0
16.11.2019 05:00:00 4,3 2,8 - - 21 11 - - NE 1003,0 30 0,0
16.11.2019 04:00:00 4,8 2,8 - - 22 12 - - NE 1002,2 45 0,0
16.11.2019 03:00:00 4,8 3,0 - - 22 12 - - NE 1002,0 24 0,0
16.11.2019 02:00:00 5,1 3,4 - - 21 11 - - NE 1001,4 15 0,2
16.11.2019 01:00:00 5,5 4,0 - - 18 10 - - NE 1001,1 9 0,0
16.11.2019 00:00:00 5,6 4,5 - - 13 7 - - NNE 1000,7 12 0,2
15.11.2019 23:00:00 6,0 4,5 - - 18 10 - - N 1000,4 9 0,0
15.11.2019 22:00:00 6,1 5,0 - - 13 7 - - NNE 1000,5 45 0,8
15.11.2019 21:00:00 6,6 5,2 - - 18 10 - - N 1000,4 25 0,2
15.11.2019 20:00:00 6,6 5,1 - - 22 12 - - N 1000,6 24 1,0
15.11.2019 19:00:00 6,6 5,0 - - 18 10 - - N 1001,0 11 2,0
15.11.2019 18:00:00 7,4 4,6 - - 21 11 - - N 1001,0 14 0,2
15.11.2019 17:00:00 7,9 4,0 - - 21 11 - - N 1001,3 40 0,0
15.11.2019 16:00:00 8,0 4,5 - - 22 12 - - N 1001,3 35 0,0
15.11.2019 15:00:00 8,2 4,9 - - 21 11 - - N 1001,6 30 0,0
15.11.2019 14:00:00 8,1 5,5 - - 18 10 - - N 1001,6 35 0,0
15.11.2019 13:00:00 7,9 5,7 - - 26 14 - - NNE 1002,1 28 0,0
15.11.2019 12:00:00 7,1 5,4 - - 26 14 - - N 1002,6 18 0,0
15.11.2019 11:00:00 6,5 5,1 - - 21 11 - - N 1003,3 21 0,0
15.11.2019 10:00:00 5,9 4,8 - - 22 12 - - N 1003,6 12 0,4
15.11.2019 09:00:00 5,8 4,3 9,0 11,7 16 9 - - N 1003,8 17 0,0
15.11.2019 08:00:00 5,0 3,8 - - 21 11 - - N 1003,4 22 0,0
15.11.2019 07:00:00 4,4 3,3 - - 18 10 - - N 1003,4 16 0,0
15.11.2019 06:00:00 4,1 3,3 - - 16 9 - - N 1003,4 15 0,0
15.11.2019 05:00:00 4,1 3,4 - - 13 7 - - N 1003,4 19 0,0
15.11.2019 04:00:00 4,1 3,3 - - 18 10 - - N 1003,3 15 0,0
15.11.2019 03:00:00 4,2 3,6 - - 15 8 - - N 1003,1 12 0,0
15.11.2019 02:00:00 4,2 3,2 - - 15 8 - - NNE 1003,0 27 0,0
15.11.2019 01:00:00 4,9 4,0 - - 16 9 - - NE 1002,8 30 0,0
15.11.2019 00:00:00 5,0 4,1 - - 21 11 - - NE 1002,6 24 0,0
14.11.2019 23:00:00 5,0 4,0 - - 18 10 - - NE 1002,0 45 0,0
14.11.2019 22:00:00 5,0 4,0 - - 21 11 - - NNE 1001,6 30 0,0
14.11.2019 21:00:00 4,7 4,0 - - 13 7 - - NNE 1001,0 40 0,0
14.11.2019 20:00:00 4,8 3,8 - - 15 8 - - NE 1000,3 30 0,0
14.11.2019 19:00:00 5,1 4,1 - - 16 9 - - NE 999,9 50 0,0
14.11.2019 18:00:00 4,3 3,0 - - 8 4 - - NNE 999,2 29 0,0
14.11.2019 17:00:00 4,8 3,5 - - 8 4 - - N 998,3 45 0,0
14.11.2019 16:00:00 5,7 3,6 - - 8 4 - - E 997,1 40 0,0
14.11.2019 15:00:00 6,3 4,2 - - 15 8 - - E 996,2 50 0,0
14.11.2019 14:00:00 7,0 5,6 - - 11 6 - - E 995,4 35 0,0
14.11.2019 13:00:00 5,4 5,4 - - 9 5 - - N 995,2 30 0,0
14.11.2019 12:00:00 3,2 3,1 - - 9 5 - - NNE 994,7 0,3 0,0
14.11.2019 11:00:00 3,4 3,3 - - 4 2 - - SE 994,3 0,2 0,0
14.11.2019 10:00:00 3,6 3,5 - - 5 3 - - SE 993,9 0,3 0,0
14.11.2019 09:00:00 2,9 2,8 9,2 11,7 5 3 - - WNW 993,1 0,2 0,0
14.11.2019 08:00:00 3,1 2,9 - - 4 2 - - W 991,8 3,0 0,0
14.11.2019 07:00:00 3,2 3,0 - - 4 2 - - W 990,9 0,1 0,0
14.11.2019 06:00:00 3,4 3,2 - - 9 5 - - NNW 990,2 0,3 0,0
14.11.2019 05:00:00 3,3 2,9 - - 8 4 - - W 989,6 6 0,0
14.11.2019 04:00:00 3,6 3,1 - - 5 3 - - W 988,8 30 0,0
14.11.2019 03:00:00 4,2 3,5 - - 5 3 - - N 988,5 35 0,0
14.11.2019 02:00:00 4,9 4,0 - - 0 0 - - N 988,5 40 0,0
14.11.2019 01:00:00 5,6 4,0 - - 8 4 - - N 988,0 50 0,6
14.11.2019 00:00:00 5,7 4,3 - - 16 9 - - W 988,8 9 1,0
13.11.2019 23:00:00 6,4 4,7 - - 8 4 - - SW 988,7 40 1,2
13.11.2019 22:00:00 6,6 5,3 - - 15 8 57 31 SW 989,4 15 1,2
13.11.2019 21:00:00 7,4 5,9 - - 48 26 67 36 S 989,6 7 3,8
13.11.2019 20:00:00 8,9 5,4 - - 42 23 54 29 S 990,6 23 0,0
13.11.2019 19:00:00 9,1 5,4 - - 37 20 54 29 S 992,1 30 0,0
13.11.2019 18:00:00 9,0 5,1 - - 35 19 55 30 S 993,5 30 1,4

tt = temperature
td = dewpoint
tt -20cm = temperature -20cm
tt -100cm = temperature -100cm
ff = wind speed
fx = gusts
dd = wind direction
ppp = reduced air pressure
vv = visibility
rr = precipitation

Next stations